Location: Ústí nad Labem
(50.6611°N, 14.0531°E)
Time: 02:50:07
(UTC+02:00)

Vanguard 1 Rocket - Visible Passes

Search period start: 17 April 2024 00:00
Search period end: 27 April 2024 00:00
Orbit: 652 x 4219 km, 34.3° (Epoch: 16 April)

Date Brightness Start Highest point End Pass type
(mag) Time Alt. Az. Time Alt. Az. Time Alt. Az.
17 Apr10.602:08:56SSE02:08:56SSE01:43:10WSWvisible
17 Apr 9.2 22:08:25 10° SW 22:14:40 29° S 22:17:53 25° SE visible
18 Apr 10.0 00:31:55 10° WSW 00:35:04 20° SW 00:35:04 20° SW visible
18 Apr 9.2 20:58:14 10° SSW 21:03:11 23° SSE 21:09:47 12° ESE visible
18 Apr 9.5 23:20:46 10° WSW 23:26:58 28° SSW 23:26:58 28° SSW visible
19 Apr10.702:13:00SSE02:13:00SSE01:44:10WSWvisible
19 Apr 9.3 22:10:03 10° SW 22:15:56 27° S 22:18:52 23° SSE visible
20 Apr 10.1 00:34:01 10° WSW 00:36:04 16° SW 00:36:04 16° SW visible
20 Apr 9.1 20:59:43 10° SW 21:04:25 22° SSE 21:10:45 11° ESE visible
20 Apr 9.6 23:22:40 10° WSW 23:27:57 24° SSW 23:27:57 24° SSW visible
21 Apr 9.3 22:11:47 10° SW 22:17:15 24° S 22:19:51 21° SSE visible
22 Apr 10.3 00:36:31 10° WSW 00:37:02 11° SW 00:37:02 11° SW visible
22 Apr 9.1 21:01:17 10° SW 21:05:43 21° S 21:11:45 11° SE visible
22 Apr 9.7 23:24:46 10° SW 23:28:56 19° SSW 23:28:56 19° SSW visible
23 Apr 9.4 22:13:41 10° SW 22:18:36 20° S 22:20:51 19° SSE visible
24 Apr 9.2 21:03:00 10° SW 21:07:03 19° S 21:12:38 10° SE visible
24 Apr 9.9 23:27:19 10° SW 23:29:58 14° SSW 23:29:58 14° SSW visible
25 Apr 9.6 22:15:49 10° SW 22:19:57 17° S 22:21:54 15° S visible
26 Apr 9.3 21:04:53 10° SW 21:08:24 16° S 21:12:58 10° SE visible
